Abilene, TX

7:40 AM CDT on April 24, 2018 (GMT -0500)
Abilene Regional

Weather History for KABI - November, 2010

Change the Weather History Date:

Tuesday, November 30, 2010

  Actual Average Record
Temperature  
Mean Temperature 38 °F 49 °F  
Max Temperature 51 °F 60 °F 81 °F (1950)
Min Temperature 25 °F 37 °F 17 °F (1979)
Degree Days  
Heating Degree Days 27 16  
Month to date heating degree days 283 329  
Since 1 July heating degree days 327 433  
Cooling Degree Days 0 0  
Month to date cooling degree days 22 19  
Year to date cooling degree days 2664 2408  
Moisture  
Dew Point 14 °F    
Average Humidity 46    
Maximum Humidity 74    
Minimum Humidity 18    
Precipitation  
Precipitation 0.00 in 0.03 in 0.62 in (1931)
Month to date precipitation 0.15 1.41  
Year to date precipitation 26.59 23.59  
Sea Level Pressure  
Sea Level Pressure 30.31 in    
Wind  
Wind Speed 12 mph (WNW)    
Max Wind Speed 22 mph    
Max Gust Speed 26 mph    
Visibility 10 miles    
Events      
T = Trace of Precipitation, MM = Missing Value Source: NWS Daily Summary

Daily Weather History Graph

Daily Weather History Graph

Search for Another Location

Airport or City:

Astronomy

Nov. 30, 2010 Rise Set
Actual Time 7:21 AM CST 5:33 PM CST
Civil Twilight 6:54 AM CST 5:59 PM CST
Nautical Twilight 6:24 AM CST 6:30 PM CST
Astronomical Twilight 5:54 AM CST 6:59 PM CST
Moon 1:55 AM CST (11/30) 1:51 PM CST (11/30)
Length of Visible Light 11h 05m
Length of Day
10h 11m
Waning Crescent, 29% of the Moon is Illuminated
Nov 30
Waning Crescent
Dec 5
New
Dec 13
First Quarter
Dec 21
Full
Dec 27
Last Quarter

Hourly Weather History & Observations

Time (CST) Temp. Windchill Dew Point Humidity Pressure Visibility Wind Dir Wind Speed Gust Speed Precip Events Conditions
12:52 AM 43.0 °F 35.7 °F 21.0 °F 42% 30.15 in 10.0 mi North 15.0 mph - N/A   Mostly Cloudy
1:52 AM 39.9 °F 33.4 °F 21.0 °F 47% 30.18 in 10.0 mi NNW 10.4 mph - N/A   Clear
2:52 AM 39.0 °F 28.8 °F 19.0 °F 45% 30.22 in 10.0 mi NNW 21.9 mph - N/A   Clear
3:52 AM 36.0 °F 24.7 °F 18.0 °F 48% 30.25 in 10.0 mi NNW 21.9 mph - 0.64 in   Clear
4:52 AM 35.1 °F - 17.1 °F 48% 30.27 in - North - - 0.94 in   Clear
5:13 AM 33.8 °F 23.2 °F 17.6 °F 52% 30.28 in 10.0 mi NNW 17.3 mph - 0.16 in   Clear
5:52 AM 33.1 °F 23.9 °F 17.1 °F 52% 30.30 in 10.0 mi NNW 12.7 mph - 0.64 in   Clear
6:52 AM 25.0 °F - 17.1 °F 72% 30.32 in - North - - 2.74 in   Clear
7:52 AM 33.1 °F - 17.1 °F 52% 30.35 in 10.0 mi North - - 1.46 in   Clear
8:52 AM 37.0 °F 29.3 °F 16.0 °F 42% 30.37 in 10.0 mi NW 11.5 mph - 0.96 in   Clear
9:52 AM 39.9 °F 32.1 °F 12.9 °F 33% 30.39 in 10.0 mi NW 13.8 mph - N/A   Clear
10:52 AM 43.0 °F 34.2 °F 10.9 °F 27% 30.40 in 10.0 mi North 20.7 mph - N/A   Clear
11:52 AM - - - N/A% 30.38 in 10.0 mi North - - N/A   Clear
12:52 PM 46.9 °F - 9.0 °F 21% 30.36 in 10.0 mi NW 16.1 mph 23.0 mph N/A   Clear
1:52 PM - - - N/A% 30.34 in 10.0 mi North - - N/A   Unknown
2:52 PM 50.0 °F - 8.1 °F 18% 30.32 in 10.0 mi NNW 11.5 mph - N/A   Clear
3:52 PM 50.0 °F - 8.1 °F 18% 30.32 in 9.0 mi WNW 10.4 mph - N/A   Clear
4:52 PM 50.0 °F - 10.0 °F 20% 30.32 in 10.0 mi WNW 9.2 mph - N/A   Clear
4:57 PM 48.2 °F - 8.6 °F 20% 30.32 in 1.5 mi WNW 9.2 mph - N/A   Clear
5:07 PM 48.2 °F - 10.4 °F 22% 30.31 in 10.0 mi NW 6.9 mph - N/A   Clear
5:52 PM 46.0 °F 43.1 °F 12.0 °F 25% 30.32 in 10.0 mi WNW 5.8 mph - N/A   Clear
6:52 PM 42.1 °F 39.2 °F 10.9 °F 28% 30.35 in 10.0 mi West 4.6 mph - N/A   Clear
7:52 PM 37.0 °F 31.6 °F 12.9 °F 37% 30.34 in 10.0 mi SW 6.9 mph - N/A   Clear
8:52 PM 34.0 °F 27.2 °F 12.0 °F 40% 30.34 in 10.0 mi South 8.1 mph - N/A   Clear
9:52 PM 35.1 °F 29.3 °F 12.9 °F 40% 30.33 in 10.0 mi South 6.9 mph - N/A   Clear
10:52 PM 33.1 °F 26.9 °F 12.9 °F 43% 30.33 in 10.0 mi SSW 6.9 mph - N/A   Clear
11:52 PM 36.0 °F 29.6 °F 12.9 °F 39% 30.31 in 10.0 mi SSW 8.1 mph - N/A   Clear